Location: Marse
(42.1502°N, 110.9866°W)
Time: 10:30:46
(UTC+00:00)

BEESAT 2 - Visible Passes

Search period start: 25 June 2022 00:00
Search period end: 05 July 2022 00:00
Orbit: 485 x 508 km, 64.9° (Epoch: 24 June)

Date Brightness Start Highest point End Pass type
(mag) Time Alt. Az. Time Alt. Az. Time Alt. Az.
25 Jun ? 05:02:22 10° NW 05:06:13 66° WSW 05:07:34 37° S visible
26 Jun ? 04:40:33 10° NW 04:44:25 76° WSW 04:46:24 27° SSE visible
27 Jun ? 04:18:42 10° NW 04:22:35 86° WSW 04:25:16 19° SSE visible
28 Jun ? 03:56:52 10° NNW 04:00:45 83° ENE 04:04:10 13° SE visible
29 Jun ? 03:35:00 10° NNW 03:38:53 73° NE 03:42:43 10° SE visible
30 Jun ? 04:52:42 10° W 04:53:41 11° WSW 04:54:41 10° WSW visible
01 Jul ? 04:30:13 10° W 04:31:52 12° WSW 04:33:31 10° SW visible
02 Jul ? 04:07:57 10° WNW 04:10:02 14° WSW 04:12:06 10° SW visible
03 Jul ? 03:45:46 10° WNW 03:48:10 16° WSW 03:50:34 10° SSW visible
